Find Starlink 1094

NORAD ID: 44941 Int'l Des: 2020-001 Owner: SPXS Country: US Constellation: starlink operational
LEOCIRCULAR

Live Position

Loading 3D Globe...

About Starlink 1094

Description loading...

Upcoming Passes

Passes for default location (London). Set your location on the main map for personalized predictions.

Altitude History

Loading altitude history...

Two-Line Element Set

1 44941U 20001AD 26105.81980476 .00023782 00000-0 74003-3 0 9991
2 44941 53.1561 146.7912 0003144 41.7198 318.4043 15.33204968345924
Epoch: Apr 15, 2026 • Age: 15 hours

Current Status

Altitude 484.3 km
Velocity 7.62 km/s
Sub-Earth Point -47.19°S, 10.44°E
Launch Date Jan 7, 2020
Age 6.2 years
Type internet

Technical Details

Classification Payload
Mass 260.00 kg
Dry Mass 248.00 kg
Total Mass 260.00 kg
Length 0.20 m
Diameter 2.80 m
Span 9.00 m
Shape Box + pan
Manufacturer SPXS
Bus Type Starlink
Phase Status In Orbit
Owner/State SPXS/US

Most Searched